Regional Weather Roundup
Issued by NWS

Home | Current Version | Previous Version | Text Only | Print | Product List | Glossary Off
Versions: 1 2 3 4 5 6 7 8 9 10 11 12 13 14 15 16 17 18 19 20 21 22 23 24 25 26 27 28 29 30 31 32 33 34 35 36 37 38 39 40 41 42 43 44 45 46 47 48 49 50

000
ASUS43 KIND 261659
RWRIN

WEATHER ROUNDUP FOR INDIANA
NATIONAL WEATHER SERVICE INDIANAPOLIS IN
100 PM EDT TUE MAY 26 2015

NOTE: "FAIR" INDICATES FEW OR NO CLOUDS BELOW 12,000 FEET WITH NO
SIGNIFICANT WEATHER AND/OR OBSTRUCTIONS TO VISIBILITY.

* - STATION DOES NOT REPORT WEATHER SUCH AS PRECIPITATION OR FOG.

+ - STATION NOT QUALITY CONTROLLED BY THE NATIONAL WEATHER SERVICE.
    USE DATA WITH CAUTION...ESPECIALLY DEWPOINT AND RELATIVE
    HUMIDITY OBSERVATIONS.

INZ001>003-010>013-019-020-261800-
NORTHWEST INDIANA

CITY           SKY/WX    TMP DP  RH WIND       PRES   REMARKS
GARY /AIRPORT/ CLOUDY    77  66  69 SE23      29.86F
RENSSELAER +   CLOUDY    75  68  78 S18G31    29.89F

$$

LMZ046-743>745-261800-
SOUTHERN LAKE MICHIGAN

STATION/POSITION TIME  TEMP    WIND        PRES    WAVE
                       AIR SEA DIR/SP/G            HT
                 (UTC) (F)     (DEG/KT/KT) (MB)    (FT)
BURNS HARBOR     1600   76     170/ 14/ 27 1011.9F
MICHIGAN CITY    1600   73     140/ 15/ 19   N/A
5NW MICH CITY    1600   67 52  180/ 12/ 17   N/A     1

$$

INZ004-005-014>016-021>024-261800-
NORTH CENTRAL INDIANA

CITY           SKY/WX    TMP DP  RH WIND       PRES   REMARKS
ELKHART        PTSUNNY   79  64  61 S9G17     29.93F
GOSHEN         PTSUNNY   81  65  58 S21G26    29.93F
SOUTH BEND     PTSUNNY   79  65  62 S22       29.91F

$$

INZ006>009-017-018-025>027-261800-
NORTHEAST INDIANA

CITY           SKY/WX    TMP DP  RH WIND       PRES   REMARKS
ANGOLA *+      MOSUNNY   79  73  83 S10       29.97F
FORT WAYNE     PTSUNNY   82  63  52 S23G35    29.97F

$$

INZ028-029-035-036-043>045-051>053-261800-
WEST CENTRAL INDIANA

CITY           SKY/WX    TMP DP  RH WIND       PRES   REMARKS
CRAWFORDSVL +  CLOUDY    74  59  59 S20G28    29.94S
GREENCASTLE +  CLOUDY    73  61  64 S13G18    29.96S
LAFAYETTE      CLOUDY    76  65  68 S9G21     29.90F
TERRE HAUTE    CLOUDY    75  68  78 S18G24    29.95R

$$

INZ030>032-037>040-046>048-054>057-064-065-261800-
CENTRAL INDIANA

CITY           SKY/WX    TMP DP  RH WIND       PRES   REMARKS
ANDERSON       MOSUNNY   82  57  42 S17G35    30.00F
COLUMBUS       PTSUNNY   81  63  54 S22       30.00F
GREENWOOD *+   CLOUDY    81  61  50 S14G28    29.99F
INDIANAPOLIS   CLOUDY    78  64  61 S18       29.95F
-EAGLE CREEK   CLOUDY    78  64  61 S13G24    29.96F
KOKOMO *+      PTSUNNY   81  66  61 S22G32    29.94F
MT COMFORT *+  PTSUNNY   82  50  32 S18G28    29.98F
SHELBYVILLE    PTSUNNY   83  64  52 S21G35    29.99F

$$

INZ033-034-041-042-049-050-058-059-261800-
EAST CENTRAL INDIANA

CITY           SKY/WX    TMP DP  RH WIND       PRES   REMARKS
MUNCIE         MOSUNNY   83  64  52 S15G26    29.98F

$$

INZ060-061-067>069-081>083-085>088-261800-
SOUTHWEST INDIANA

CITY           SKY/WX    TMP DP  RH WIND       PRES   REMARKS
EVANSVILLE     CLOUDY    77  65  66 SW21G29   30.00S
HUNTINGBURG *+ CLOUDY    73  66  78 S15G21    30.00F

$$

INZ062-063-066-070>080-084-089>092-261800-
SOUTH CENTRAL AND SOUTHEAST INDIANA

CITY           SKY/WX    TMP DP  RH WIND       PRES   REMARKS
BLOOMINGTON    LGT RAIN  75  66  73 S16G22    29.98S
MADISON *+     PTSUNNY   82  63  51 S21       30.06F
SEYMOUR +      PTSUNNY   82  64  54 S20G29    30.00F

$$




USA.gov is the U.S. government's official web portal to all federal, state and local government web resources and services.